Waarnemingen

Advertentie
Mijn weer
Leeuwarden, Nederland (6270): temperatuur & dauwpunt: 20.04.2018 11:00:00 - 26.04.2018 11:00:00 (CEST)Leeuwarden, Nederland (6270): temperatuur 5cm: 20.04.2018 11:00:00 - 26.04.2018 11:00:00 (CEST)Leeuwarden, Nederland (6270): windsnelheid & windstoten: 20.04.2018 11:00:00 - 26.04.2018 11:00:00 (CEST)Leeuwarden, Nederland (6270): windrichting: 20.04.2018 11:00:00 - 26.04.2018 11:00:00 (CEST)Leeuwarden, Nederland (6270): luchtdruk: 20.04.2018 11:00:00 - 26.04.2018 11:00:00 (CEST)Leeuwarden, Nederland (6270): zicht: 20.04.2018 11:00:00 - 26.04.2018 11:00:00 (CEST)Leeuwarden, Nederland (6270): neerslag: 20.04.2018 11:00:00 - 26.04.2018 11:00:00 (CEST)
Datum & Tijd tt [°C] td [°C] tt 5cm [°C] ff [km/u] ff [kn] fx [km/u] fx [kn] dd ppp [hPa] vv [km] rr [mm]
26.04.2018 11:00:00 10,0 7,0 - 31 17 - - W - 10 -
26.04.2018 10:00:00 9,9 6,5 10,1 31 17 43 23 W 1011,8 10 0,0
26.04.2018 09:00:00 9,6 6,3 10,1 24 13 36 19 W 1011,2 10 0,0
26.04.2018 08:00:00 9,4 6,5 8,9 18 10 - - W 1010,7 10 0,0
26.04.2018 07:00:00 8,3 6,3 7,8 21 11 40 21 W 1010,2 10 0,0
26.04.2018 06:00:00 8,4 6,5 7,8 22 12 32 18 W 1009,7 10 0,4
26.04.2018 05:00:00 8,4 6,5 7,8 18 10 - - WZW 1009,6 10 0,4
26.04.2018 04:00:00 8,4 6,7 7,8 16 9 29 16 WZW 1009,3 10 0,4
26.04.2018 03:00:00 8,6 6,6 8,2 15 8 25 14 WZW 1009,3 10 0,0
26.04.2018 02:00:00 8,7 6,5 8,1 18 10 - - WZW 1009,5 10 0,1
26.04.2018 01:00:00 9,1 7,0 8,6 22 12 32 18 WZW 1009,5 10 0,1
26.04.2018 00:00:00 9,2 6,7 8,7 21 11 29 16 ZW 1009,6 10 0,0
25.04.2018 23:00:00 8,6 7,5 7,8 13 7 - - ZW 1009,7 10 0,0
25.04.2018 22:00:00 9,2 7,3 8,7 15 8 29 16 WZW 1009,8 10 0,0
25.04.2018 21:00:00 9,0 6,8 8,3 15 8 29 16 WZW 1009,7 10 0,0
25.04.2018 20:00:00 10,2 6,2 9,7 22 12 - - WZW 1009,6 10 0,0
25.04.2018 19:00:00 10,7 6,5 10,7 21 11 40 21 W 1009,8 10 0,0
25.04.2018 18:00:00 11,0 5,7 11,9 29 16 54 29 W 1010,0 10 0,0
25.04.2018 17:00:00 10,7 7,1 10,8 24 13 - - WZW 1010,2 10 0,0
25.04.2018 16:00:00 11,4 8,0 12,0 29 16 43 23 WZW 1010,0 10 1,4
25.04.2018 15:00:00 9,8 7,6 9,6 29 16 43 23 W 1010,2 10 0,7
25.04.2018 14:00:00 11,0 7,0 12,1 28 15 - - W 1009,8 41 0,0
25.04.2018 13:00:00 10,6 6,9 11,7 22 12 32 18 W 1009,8 10 0,0
25.04.2018 12:00:00 9,3 6,5 10,1 22 12 32 18 W 1009,6 10 0,0
25.04.2018 11:00:00 9,7 6,5 10,8 22 12 40 21 WNW 1008,7 10 0,0
25.04.2018 10:00:00 8,8 6,6 9,4 24 13 43 23 WNW 1007,8 10 0,0
25.04.2018 09:00:00 9,1 6,1 9,2 26 14 47 25 WNW 1006,9 10 0,0
25.04.2018 08:00:00 9,6 6,6 9,6 29 16 43 23 NW 1005,3 10 0,0
25.04.2018 07:00:00 9,2 8,0 8,9 34 18 68 37 W 1003,6 10 0,0
25.04.2018 06:00:00 11,1 9,5 10,9 41 22 61 33 WZW 1001,9 10 0,0
25.04.2018 05:00:00 11,7 10,4 11,5 39 21 65 35 WZW 1002,2 10 0,8
25.04.2018 04:00:00 11,5 10,5 11,4 37 20 54 29 WZW 1002,9 10 0,6
25.04.2018 03:00:00 11,8 10,4 11,6 31 17 47 25 ZW 1003,7 10 0,1
25.04.2018 02:00:00 11,9 10,4 11,7 29 16 50 27 ZW 1004,5 10 0,1
25.04.2018 01:00:00 11,5 11,2 11,5 22 12 40 21 ZW 1005,5 3,5 5,0
25.04.2018 00:00:00 10,8 10,4 10,7 18 10 29 16 ZZW 1006,8 4,1 1,7
24.04.2018 23:00:00 10,4 9,9 10,3 11 6 25 14 ZZO 1008,5 3,9 1,2
24.04.2018 22:00:00 9,8 9,4 9,8 5 3 11 6 Z 1010,1 7 1,0
24.04.2018 21:00:00 9,9 8,9 9,9 5 3 14 8 WZW 1010,8 9 1,0
24.04.2018 20:00:00 10,3 9,5 10,2 8 4 25 14 WZW 1011,3 10 0,6
24.04.2018 19:00:00 10,7 9,2 10,6 18 10 29 16 WZW 1012,2 10 0,5
24.04.2018 18:00:00 11,3 9,4 11,6 18 10 36 19 W 1012,8 10 0,0
24.04.2018 17:00:00 12,9 9,2 13,1 22 12 40 21 W 1013,3 10 0,0
24.04.2018 16:00:00 13,9 6,8 14,9 26 14 43 23 W 1013,5 10 0,0
24.04.2018 15:00:00 13,7 7,2 14,1 28 15 47 25 W 1013,7 10 0,0
24.04.2018 14:00:00 14,3 7,9 15,1 34 18 50 27 W 1013,7 10 0,0
24.04.2018 13:00:00 13,4 9,4 13,8 35 19 47 25 W 1013,9 10 0,0
24.04.2018 12:00:00 12,4 9,0 12,6 31 17 47 25 W 1013,6 10 0,0
24.04.2018 11:00:00 12,8 9,0 12,7 34 18 50 27 W 1012,8 10 0,0
24.04.2018 10:00:00 12,3 9,0 12,4 35 19 50 27 W 1012,8 10 0,0
24.04.2018 09:00:00 11,9 9,2 11,9 29 16 43 23 WZW 1012,5 10 0,0
24.04.2018 08:00:00 11,6 9,1 11,4 31 17 47 25 WZW 1012,1 10 0,0
24.04.2018 07:00:00 11,1 8,7 10,9 28 15 43 23 WZW 1011,5 10 0,0
24.04.2018 06:00:00 11,2 8,6 11,0 28 15 43 23 WZW 1011,5 10 0,0
24.04.2018 05:00:00 10,8 8,9 10,6 28 15 43 23 WZW 1012,0 9 0,0
24.04.2018 04:00:00 11,0 8,7 10,7 24 13 36 19 ZW 1011,8 10 0,0
24.04.2018 03:00:00 10,7 8,6 10,3 24 13 32 18 ZW 1012,1 10 0,0
24.04.2018 02:00:00 10,0 8,4 9,5 16 9 29 16 ZZW 1012,8 10 0,0
24.04.2018 01:00:00 9,5 7,9 8,8 16 9 25 14 ZZW 1013,1 10 0,0
24.04.2018 00:00:00 9,5 7,6 8,7 15 8 22 12 ZW 1013,7 10 0,0
23.04.2018 23:00:00 8,7 7,0 8,0 9 5 18 10 ZZW 1014,3 10 0,0
23.04.2018 22:00:00 9,0 7,0 8,0 11 6 22 12 ZZW 1014,5 10 0,0
23.04.2018 21:00:00 10,4 7,8 9,8 15 8 25 14 WZW 1014,5 10 0,0
23.04.2018 20:00:00 11,9 7,3 11,4 18 10 32 18 WZW 1014,8 35 0,0
23.04.2018 19:00:00 12,5 6,2 12,3 21 11 36 19 W 1014,9 10 0,0
23.04.2018 18:00:00 12,5 5,3 12,5 25 14 43 23 W 1015,1 48 0,0
23.04.2018 17:00:00 12,9 5,3 12,8 25 14 40 21 W 1015,1 40 0,0
23.04.2018 16:00:00 13,7 6,8 14,7 29 16 40 21 W 1014,9 34 0,0
23.04.2018 15:00:00 12,8 7,5 13,2 29 16 43 23 W 1014,9 38 0,0
23.04.2018 14:00:00 13,4 6,7 13,6 28 15 - - W 1014,4 10 0,0
23.04.2018 13:00:00 13,0 6,9 13,6 29 16 40 21 W 1014,0 36 0,0
23.04.2018 12:00:00 13,8 8,6 14,5 29 16 40 21 W 1013,8 32 0,0
23.04.2018 11:00:00 13,2 8,0 14,5 29 16 40 21 W 1013,3 31 0,0
23.04.2018 10:00:00 13,0 8,7 13,6 26 14 32 18 W 1012,6 10 0,0
23.04.2018 09:00:00 13,3 7,8 13,4 14 8 22 12 W 1011,9 43 0,0
23.04.2018 08:00:00 11,7 9,3 11,4 14 8 22 12 W 1011,2 18 0,0
23.04.2018 07:00:00 10,5 9,4 9,9 11 6 25 14 W 1010,6 8 0,0
23.04.2018 06:00:00 10,6 9,6 9,9 13 7 25 14 W 1009,8 4,6 0,0
23.04.2018 05:00:00 11,7 10,7 11,2 14 8 18 10 WZW 1009,6 4,5 0,0
23.04.2018 04:00:00 11,5 10,7 11,1 14 8 22 12 ZW 1009,3 3,8 0,0
23.04.2018 03:00:00 10,7 10,0 9,9 13 7 18 10 ZW 1008,8 6 0,0
23.04.2018 02:00:00 10,8 9,5 10,3 15 8 29 16 ZW 1008,4 8 0,0
23.04.2018 01:00:00 11,7 9,3 10,9 15 8 25 14 ZW 1008,6 10 0,0
23.04.2018 00:00:00 12,6 9,4 11,9 16 9 22 12 ZW 1008,4 10 0,0
22.04.2018 23:00:00 14,8 9,9 14,0 18 10 29 16 ZW 1008,6 10 0,0
22.04.2018 22:00:00 16,5 11,2 14,9 11 6 18 10 Z 1008,4 8 0,0
22.04.2018 21:00:00 16,2 12,4 13,5 8 4 18 10 ZZW 1008,2 8 0,0
22.04.2018 20:00:00 18,7 12,1 17,7 14 8 25 14 WZW 1007,9 10 0,0
22.04.2018 19:00:00 20,7 11,6 20,3 18 10 29 16 WZW 1008,0 17 0,0
22.04.2018 18:00:00 22,6 13,1 21,7 14 8 22 12 WZW 1007,9 19 0,0
22.04.2018 17:00:00 23,7 13,7 23,7 14 8 22 12 ZW 1008,3 19 0,0
22.04.2018 16:00:00 23,4 13,6 24,2 13 7 25 14 Z 1008,8 10 0,0
22.04.2018 15:00:00 23,1 13,3 23,8 18 10 29 16 Z 1009,5 10 0,0
22.04.2018 14:00:00 22,7 13,3 23,1 16 9 29 16 ZZO 1010,2 10 0,0
22.04.2018 13:00:00 21,3 9,9 22,0 22 12 32 18 ZZO 1010,9 10 0,0
22.04.2018 12:00:00 20,0 8,4 20,2 21 11 29 16 OZO 1011,8 10 0,0
22.04.2018 11:00:00 18,3 8,7 19,2 16 9 29 16 ZO 1012,5 10 0,0
22.04.2018 10:00:00 15,6 7,9 16,2 13 7 25 14 OZO 1013,2 10 0,0
22.04.2018 09:00:00 14,0 7,2 14,4 13 7 22 12 OZO 1013,9 10 0,0
22.04.2018 08:00:00 11,4 5,9 10,9 15 8 22 12 OZO 1014,4 10 0,0
22.04.2018 07:00:00 10,0 5,1 9,1 14 8 22 12 OZO 1014,7 49 0,0
22.04.2018 06:00:00 10,1 5,0 9,2 15 8 25 14 OZO 1015,4 10 0,0
22.04.2018 05:00:00 10,3 4,8 9,4 18 10 29 16 OZO 1016,2 50 0,0
22.04.2018 04:00:00 10,5 5,2 9,5 18 10 25 14 OZO 1016,9 50 0,0
22.04.2018 03:00:00 10,5 5,7 9,5 16 9 25 14 OZO 1017,5 10 0,0
22.04.2018 02:00:00 10,7 6,3 9,7 15 8 22 12 O 1018,3 10 0,0
22.04.2018 01:00:00 10,9 6,0 9,9 15 8 22 12 O 1019,0 10 0,0
22.04.2018 00:00:00 10,8 4,6 9,4 15 8 22 12 O 1019,3 10 0,0
21.04.2018 23:00:00 10,0 6,0 9,1 13 7 18 10 O 1019,8 10 0,0
21.04.2018 22:00:00 10,0 6,5 8,9 13 7 18 10 ONO 1020,3 10 0,0
21.04.2018 21:00:00 10,6 7,5 9,7 13 7 22 12 ONO 1020,5 10 0,0
21.04.2018 20:00:00 12,4 7,9 11,9 14 8 25 14 ONO 1020,7 45 0,0
21.04.2018 19:00:00 13,8 7,7 13,8 18 10 25 14 NO 1021,0 45 0,0
21.04.2018 18:00:00 15,9 7,0 16,4 18 10 25 14 NNO 1021,4 46 0,0
21.04.2018 17:00:00 17,0 7,8 18,1 14 8 22 12 NO 1021,9 39 0,0
21.04.2018 16:00:00 17,2 7,4 18,6 11 6 22 12 NO 1022,5 40 0,0
21.04.2018 15:00:00 17,1 7,3 18,9 11 6 22 12 NO 1023,1 10 0,0
21.04.2018 14:00:00 17,1 7,9 18,9 11 6 22 12 NNO 1023,4 10 0,0
21.04.2018 13:00:00 16,4 8,5 18,4 9 5 18 10 NO 1023,7 10 0,0
21.04.2018 12:00:00 15,8 8,2 17,7 9 5 18 10 NO 1024,2 10 0,0
21.04.2018 11:00:00 14,8 7,7 16,3 11 6 14 8 NO 1024,1 10 0,0
21.04.2018 10:00:00 13,6 8,7 15,2 5 3 11 6 NNO 1023,9 10 0,0
21.04.2018 09:00:00 11,7 9,5 12,5 8 4 14 8 N 1023,7 10 0,0
21.04.2018 08:00:00 9,4 8,9 9,4 5 3 11 6 N 1023,4 9 0,0
21.04.2018 07:00:00 7,0 7,0 4,2 7 4 14 8 N 1022,9 7 0,0
21.04.2018 06:00:00 5,4 5,3 3,2 11 6 11 6 NNW 1022,4 4,9 0,0
21.04.2018 05:00:00 7,1 7,1 4,4 4 2 7 4 N 1022,5 6 0,0
21.04.2018 04:00:00 6,6 6,5 5,0 7 4 14 8 N 1022,8 7 0,0
21.04.2018 03:00:00 8,0 7,6 7,4 11 6 18 10 N 1022,7 7 0,0
21.04.2018 02:00:00 8,3 7,9 7,4 11 6 14 8 NNW 1022,7 4,6 0,0
21.04.2018 01:00:00 8,6 8,0 7,8 9 5 18 10 NNW 1022,9 3,4 0,0
21.04.2018 00:00:00 9,7 9,0 9,2 15 8 18 10 NNW 1022,5 2,5 0,0
20.04.2018 23:00:00 9,1 8,2 7,5 5 3 11 6 NW 1022,2 3,0 0,0
20.04.2018 22:00:00 9,8 8,4 9,1 9 5 18 10 NNW 1022,2 2,9 0,0
20.04.2018 21:00:00 11,7 9,4 11,3 13 7 22 12 NNW 1022,0 3,4 0,0
20.04.2018 20:00:00 14,2 10,8 14,3 18 10 22 12 NNW 1021,4 3,6 0,0
20.04.2018 19:00:00 18,1 11,5 18,2 11 6 18 10 W 1021,2 7 0,0
20.04.2018 18:00:00 19,8 10,7 20,1 14 8 25 14 W 1021,6 12 0,0
20.04.2018 17:00:00 21,6 10,9 22,0 18 10 29 16 W 1021,6 11 0,0
20.04.2018 16:00:00 22,5 12,4 23,2 18 10 25 14 W 1021,5 10 0,0
20.04.2018 15:00:00 22,5 13,1 24,0 11 6 22 12 ZW 1021,8 8 0,0
20.04.2018 14:00:00 22,2 12,2 23,0 13 7 18 10 W 1022,0 8 0,0
20.04.2018 13:00:00 21,8 13,1 22,7 15 8 22 12 WZW 1022,1 6 0,0
20.04.2018 12:00:00 21,7 12,9 22,2 11 6 14 8 ZW 1022,1 7 0,0
20.04.2018 11:00:00 19,8 11,5 20,8 9 5 14 8 ZW 1022,0 6 0,0

tt = temperatuur
td = dauwpunt
tt 5cm = temperatuur 5cm
ff = windsnelheid
fx = windstoten
dd = windrichting
ppp = luchtdruk
vv = zicht
rr = neerslag

Weerstations in de omgeving